Home > Time Zones > World Clock > Weather > Italy > Parma > Past weeks

Flag for Italy Weather past 2 weeks in Parma, Italy

Now
66 °F

Clear.


Feels Like: 66 °F
Forecast: 52 / 71 °F
Wind: 8 mph from West

Location: Parma

Current Time: Sep 23, 2014 at 1:16:06 AM

Latest Report: Sep 22, 2014 at 11:50 PM


Visibility: 10 mi

Pressure: 29.89 "Hg

Humidity: 35%

Dew point: 37 °F

Location of ParmaLocation

Historic Weather in Parma — Graph

°F

Parma temperature yesterday

Maximum temperature yesterday: 82 °F (at 3:50 PM)
Minimum temperature yesterday: 59 °F (at 6:50 AM)
Average temperature yesterday: 72 °F

Past Weeks' High & Low Weather Summary

 TemperatureHumidityPressure
High84 °F (Sep 9, 2:50 PM)100% (Sep 10, 6:00 AM)30.12 "Hg (Sep 10, 6:00 AM)
Low36 °F (Sep 17, 10:50 PM)26% (Sep 22, 5:50 PM)29.74 "Hg (Sep 22, 5:50 PM)
Average69 °F75%29.98 "Hg
* Reported Sep 7 11:50 PM — Sep 22 11:50 PM, Parma, Weather by CustomWeather, © 2014

Note: Actual official high and low records may vary slightly from our data, if they occured in-between our weather recording intervals... More about our weather records

Advertising

Parma weather history for previous 24 hours

 ConditionsComfort  
Time TempWeatherWind HumidityBarometerVisibility
11:50 PM
Sep 22
66 °FClear.8 mph35%29.89 "Hg10 mi
10:50 PM70 °FClear.13 mph31%29.86 "Hg10 mi
9:50 PM72 °FClear.13 mph38%29.80 "Hg10 mi
8:50 PM70 °FClear.9 mph43%29.77 "Hg10 mi
7:50 PM72 °FSunny.8 mph41%29.74 "Hg10 mi
6:50 PM79 °FSunny.9 mph30%29.74 "Hg10 mi
5:50 PM82 °FPassing clouds.10 mph26%29.74 "HgN/A
4:50 PM82 °FPassing clouds.13 mph28%29.77 "HgN/A
3:50 PM82 °FPassing clouds.10 mph35%29.77 "HgN/A
2:50 PM79 °FPassing clouds.9 mph45%29.80 "HgN/A
1:50 PM79 °FPassing clouds.12 mph54%29.83 "HgN/A
12:50 PM75 °FPassing clouds.7 mph57%29.83 "HgN/A
11:50 AM75 °FPassing clouds.12 mph61%29.86 "HgN/A
10:50 AM72 °FSunny.12 mph69%29.86 "Hg10 mi
9:50 AM68 °FPassing clouds.7 mph83%29.86 "HgN/A
8:50 AM64 °FSunny.5 mph88%29.86 "Hg10 mi
7:50 AM61 °FClear.1 mph94%29.86 "Hg10 mi
6:50 AM59 °FClear.3 mph94%29.86 "Hg10 mi
6:00 AM61 °FClear.1 mph94%29.83 "Hg10 mi
Weather by CustomWeather, © 2014

See weather overviewHow to use our weather pages